DNO530 LGAV-LGSA

Flight info

Callsign DNO530
Flight time 0h 29m
Altitude 23000
Route KEA L617 MIL Y144 RUSOS
Aircraft A320/M-SDE2GHIJ1RTWY/LB1

Departure

Time 2026-05-06 05:07
Airport Athens Eleftherios Venizelos International Airport (LGAV)

Arrival

Time 2026-05-06 05:36
Airport Chania International Airport (LGSA)
Time Latitude Longitude Altitude Speed Heading
2026-05-06 04:45 37.92775 23.94094 303 ft 0 kts 38°
2026-05-06 04:57 37.92770 23.94089 301 ft 4 kts 38°
2026-05-06 04:57 37.92749 23.94068 300 ft 4 kts 37°
2026-05-06 04:57 37.92731 23.94051 302 ft 4 kts 42°
2026-05-06 04:57 37.92720 23.94028 300 ft 4 kts 104°
2026-05-06 04:58 37.92731 23.94001 302 ft 2 kts 127°
2026-05-06 04:58 37.92718 23.94022 301 ft 3 kts 127°
2026-05-06 04:58 37.92716 23.94025 301 ft 0 kts 127°
2026-05-06 05:02 37.92713 23.94031 301 ft 2 kts 127°
2026-05-06 05:02 37.92701 23.94050 302 ft 4 kts 127°
2026-05-06 05:02 37.92682 23.94082 303 ft 6 kts 127°
2026-05-06 05:02 37.92654 23.94128 303 ft 7 kts 128°
2026-05-06 05:03 37.92604 23.94139 302 ft 9 kts 205°
2026-05-06 05:03 37.92551 23.94092 304 ft 7 kts 217°
2026-05-06 05:03 37.92506 23.94067 302 ft 8 kts 180°
2026-05-06 05:03 37.92462 23.94115 302 ft 9 kts 123°
2026-05-06 05:04 37.92424 23.94187 305 ft 9 kts 124°
2026-05-06 05:04 37.92411 23.94218 304 ft 3 kts 102°
2026-05-06 05:04 37.92411 23.94237 305 ft 1 kts 89°
2026-05-06 05:04 37.92412 23.94242 305 ft 0 kts 89°
2026-05-06 05:05 37.92412 23.94247 305 ft 0 kts 89°
2026-05-06 05:05 37.92412 23.94276 306 ft 8 kts 89°
2026-05-06 05:05 37.92413 23.94342 308 ft 7 kts 88°
2026-05-06 05:06 37.92433 23.94405 309 ft 11 kts 42°
2026-05-06 05:06 37.92628 23.94587 305 ft 68 kts 37°
2026-05-06 05:06 37.93176 23.95110 294 ft 126 kts 37°
2026-05-06 05:06 37.93997 23.95890 285 ft 167 kts 37°
2026-05-06 05:07 37.94938 23.96792 826 ft 169 kts 37°
2026-05-06 05:07 37.95875 23.97691 1467 ft 169 kts 36°
2026-05-06 05:07 37.96809 23.98586 2087 ft 169 kts 36°
2026-05-06 05:07 37.97747 23.99485 2631 ft 169 kts 36°
2026-05-06 05:08 37.98701 24.00402 3193 ft 170 kts 36°
2026-05-06 05:08 37.99586 24.01458 3549 ft 187 kts 59°
2026-05-06 05:08 37.99869 24.03141 3800 ft 211 kts 97°
2026-05-06 05:08 37.99354 24.04977 4090 ft 232 kts 121°
2026-05-06 05:09 37.98433 24.06673 4825 ft 235 kts 134°
2026-05-06 05:09 37.97088 24.07841 5554 ft 238 kts 162°
2026-05-06 05:09 37.95456 24.08248 6306 ft 242 kts 173°
2026-05-06 05:09 37.93707 24.08540 6686 ft 265 kts 173°
2026-05-06 05:10 37.91798 24.08850 7127 ft 284 kts 173°
2026-05-06 05:10 37.89816 24.09173 7859 ft 291 kts 173°
2026-05-06 05:10 37.87793 24.09502 8647 ft 295 kts 173°
2026-05-06 05:10 37.85739 24.09837 9432 ft 300 kts 173°
2026-05-06 05:11 37.83652 24.10182 10184 ft 305 kts 173°
2026-05-06 05:11 37.81468 24.10544 10449 ft 328 kts 173°
2026-05-06 05:11 37.79129 24.10932 10609 ft 351 kts 173°
2026-05-06 05:11 37.76634 24.11346 10868 ft 369 kts 173°
2026-05-06 05:12 37.74065 24.11773 11421 ft 375 kts 173°
2026-05-06 05:12 37.71460 24.12206 12046 ft 379 kts 173°
2026-05-06 05:12 37.68826 24.12644 12689 ft 384 kts 174°
2026-05-06 05:12 37.66163 24.13083 13326 ft 388 kts 174°
2026-05-06 05:13 37.63470 24.13527 13946 ft 392 kts 174°
2026-05-06 05:13 37.60749 24.13975 14479 ft 396 kts 174°
2026-05-06 05:13 37.58000 24.14425 15012 ft 400 kts 174°
2026-05-06 05:13 37.55223 24.14882 15519 ft 404 kts 174°
2026-05-06 05:14 37.52425 24.15345 16040 ft 408 kts 174°
2026-05-06 05:14 37.49591 24.15813 16537 ft 413 kts 175°
2026-05-06 05:14 37.46729 24.16283 17061 ft 417 kts 175°
2026-05-06 05:14 37.43838 24.16756 17599 ft 420 kts 175°
2026-05-06 05:15 37.40925 24.17235 18142 ft 424 kts 175°
2026-05-06 05:15 37.37984 24.17717 18620 ft 428 kts 175°
2026-05-06 05:15 37.35017 24.18205 19092 ft 432 kts 175°
2026-05-06 05:15 37.32025 24.18697 19572 ft 435 kts 175°
2026-05-06 05:16 37.29009 24.19191 20054 ft 439 kts 175°
2026-05-06 05:16 37.25968 24.19678 20534 ft 442 kts 176°
2026-05-06 05:16 37.22913 24.20116 20987 ft 444 kts 176°
2026-05-06 05:16 37.19827 24.20512 21444 ft 447 kts 177°
2026-05-06 05:17 37.16719 24.20887 21866 ft 450 kts 177°
2026-05-06 05:17 37.13589 24.21260 22290 ft 453 kts 177°
2026-05-06 05:17 37.10439 24.21638 22709 ft 456 kts 177°
2026-05-06 05:17 37.07267 24.22025 23020 ft 459 kts 177°
2026-05-06 05:18 37.04065 24.22425 23091 ft 468 kts 177°
2026-05-06 05:18 37.00794 24.22839 23076 ft 479 kts 177°
2026-05-06 05:18 36.97467 24.23263 23088 ft 481 kts 176°
2026-05-06 05:18 36.94133 24.23691 23087 ft 481 kts 176°
2026-05-06 05:19 36.90799 24.24121 23088 ft 482 kts 176°
2026-05-06 05:19 36.87464 24.24550 23090 ft 482 kts 176°
2026-05-06 05:19 36.84093 24.24983 23089 ft 481 kts 176°
2026-05-06 05:19 36.80803 24.25403 23089 ft 481 kts 177°
2026-05-06 05:20 36.77469 24.25822 23070 ft 481 kts 177°
2026-05-06 05:20 36.74137 24.26234 23089 ft 481 kts 177°
2026-05-06 05:20 36.70763 24.26562 23088 ft 478 kts 181°
2026-05-06 05:20 36.67445 24.26644 23089 ft 478 kts 182°
2026-05-06 05:21 36.64120 24.26675 23090 ft 477 kts 183°
2026-05-06 05:21 36.60806 24.26672 23042 ft 472 kts 183°
2026-05-06 05:21 36.57539 24.26653 22044 ft 471 kts 183°
2026-05-06 05:21 36.55367 24.26640 21338 ft 473 kts 183°
2026-05-06 05:22 36.52053 24.26627 20296 ft 475 kts 183°
2026-05-06 05:22 36.48762 24.26629 19470 ft 472 kts 182°
2026-05-06 05:22 36.45489 24.26641 18707 ft 468 kts 182°
2026-05-06 05:22 36.42250 24.26658 17900 ft 463 kts 182°
2026-05-06 05:23 36.39055 24.26676 17091 ft 457 kts 182°
2026-05-06 05:23 36.35890 24.26694 16312 ft 452 kts 182°
2026-05-06 05:23 36.29665 24.26718 14834 ft 443 kts 182°
2026-05-06 05:24 36.26598 24.26724 14153 ft 438 kts 182°
2026-05-06 05:24 36.23568 24.26724 13461 ft 434 kts 182°
2026-05-06 05:24 36.20555 24.26727 12785 ft 429 kts 181°
2026-05-06 05:24 36.17598 24.26739 12134 ft 423 kts 181°
2026-05-06 05:25 36.14675 24.26754 11595 ft 414 kts 181°
2026-05-06 05:25 36.11840 24.26769 11335 ft 398 kts 181°
2026-05-06 05:25 36.09134 24.26781 11207 ft 380 kts 181°
2026-05-06 05:25 36.06555 24.26787 11090 ft 363 kts 181°
2026-05-06 05:26 36.04069 24.26795 10953 ft 349 kts 181°
2026-05-06 05:26 36.01682 24.26804 10844 ft 337 kts 181°
2026-05-06 05:26 35.99376 24.26809 10718 ft 326 kts 181°
2026-05-06 05:26 35.97144 24.26814 10594 ft 316 kts 181°
2026-05-06 05:27 35.94977 24.26822 10434 ft 308 kts 180°
2026-05-06 05:27 35.92852 24.26830 10156 ft 305 kts 180°
2026-05-06 05:27 35.90737 24.26833 9854 ft 303 kts 180°
2026-05-06 05:27 35.88636 24.26840 9549 ft 300 kts 180°
2026-05-06 05:28 35.86561 24.26850 9002 ft 297 kts 180°
2026-05-06 05:28 35.84495 24.26858 8391 ft 295 kts 179°
2026-05-06 05:28 35.82426 24.26861 7837 ft 292 kts 179°
2026-05-06 05:28 35.80409 24.26865 7284 ft 289 kts 179°
2026-05-06 05:29 35.78434 24.26872 6749 ft 286 kts 178°
2026-05-06 05:29 35.76450 24.26879 6205 ft 284 kts 178°
2026-05-06 05:29 35.74483 24.26887 5660 ft 280 kts 178°
2026-05-06 05:29 35.72577 24.26895 5533 ft 262 kts 179°
2026-05-06 05:30 35.70815 24.26899 5357 ft 246 kts 179°
2026-05-06 05:30 35.69095 24.26905 4855 ft 247 kts 180°
2026-05-06 05:30 35.67399 24.26913 4517 ft 239 kts 181°
2026-05-06 05:30 35.65745 24.26923 4097 ft 238 kts 181°
2026-05-06 05:31 35.64097 24.26931 3845 ft 235 kts 181°
2026-05-06 05:31 35.62487 24.26935 3700 ft 228 kts 181°
2026-05-06 05:31 35.60931 24.26941 3558 ft 219 kts 181°
2026-05-06 05:31 35.59430 24.26947 3439 ft 212 kts 181°
2026-05-06 05:32 35.57993 24.26954 3335 ft 200 kts 181°
2026-05-06 05:32 35.56649 24.26960 3201 ft 188 kts 181°
2026-05-06 05:32 35.55375 24.26964 3075 ft 177 kts 182°
2026-05-06 05:32 35.54191 24.26966 2923 ft 162 kts 182°
2026-05-06 05:33 35.53086 24.26968 2661 ft 153 kts 182°
2026-05-06 05:33 35.52037 24.26842 2255 ft 150 kts 201°
2026-05-06 05:33 35.51194 24.26172 1909 ft 143 kts 234°
2026-05-06 05:33 35.50824 24.25076 1673 ft 139 kts 267°
2026-05-06 05:34 35.50798 24.23890 1590 ft 140 kts 272°
2026-05-06 05:34 35.50837 24.22689 1278 ft 140 kts 274°
2026-05-06 05:34 35.50990 24.21518 1078 ft 139 kts 288°
2026-05-06 05:34 35.51369 24.20426 1027 ft 141 kts 295°
2026-05-06 05:35 35.51757 24.19324 922 ft 141 kts 293°
2026-05-06 05:35 35.52127 24.18209 763 ft 141 kts 292°
2026-05-06 05:35 35.52488 24.17092 574 ft 141 kts 292°
2026-05-06 05:35 35.52830 24.16034 490 ft 118 kts 291°
2026-05-06 05:36 35.53090 24.15232 483 ft 86 kts 291°
2026-05-06 05:36 35.53285 24.14631 493 ft 50 kts 291°
2026-05-06 05:36 35.53369 24.14370 489 ft 26 kts 291°
2026-05-06 05:36 35.53415 24.14267 491 ft 10 kts 336°
2026-05-06 05:37 35.53488 24.14288 498 ft 12 kts 21°
2026-05-06 05:37 35.53578 24.14331 498 ft 15 kts 21°
2026-05-06 05:37 35.53633 24.14357 493 ft 7 kts 21°
2026-05-06 05:37 35.53682 24.14343 498 ft 9 kts 310°
2026-05-06 05:38 35.53712 24.14263 492 ft 12 kts 291°
2026-05-06 05:38 35.53745 24.14162 494 ft 14 kts 291°
2026-05-06 05:38 35.53784 24.14038 492 ft 17 kts 291°
2026-05-06 05:38 35.53818 24.13937 494 ft 6 kts 292°
2026-05-06 05:39 35.53835 24.13921 494 ft 4 kts
2026-05-06 05:39 35.53866 24.13933 498 ft 6 kts 22°
2026-05-06 05:39 35.53895 24.13948 498 ft 1 kts 21°
2026-05-06 05:39 35.53904 24.13951 498 ft 1 kts 19°
2026-05-06 05:40 35.53908 24.13953 498 ft 0 kts 20°